Regional Weather Roundup
Issued by NWS State College, PA

Home | Current Version | Previous Version | Text Only | Print | Product List | Glossary Off
Versions: 1 2 3 4 5 6 7 8 9 10 11 12 13 14 15 16 17 18 19 20 21 22 23 24 25 26 27 28 29 30 31 32 33 34 35 36 37 38 39 40 41 42 43 44 45 46 47 48 49 50

000
ASUS41 KCTP 141610
RWRCTP

REGIONAL WEATHER ROUNDUP
NATIONAL WEATHER SERVICE STATE COLLEGE PA
1100 AM EST THU DEC 14 2017

Note: "fair" indicates few or no clouds below 12,000 feet with no
significant weather and/or obstructions to visibility.

* = STATION THAT DOES NOT REPORT PRECIPITATION /E.G. RAIN...SNOW...ETC/
    THUNDER OR FOG.

PAZ002>004-007>009-013>016-020>023-029>032-141700-
WESTERN PENNSYLVANIA

CITY           SKY/WX    TMP DP  RH WIND       PRES   REMARKS
ERIE           CLOUDY    21  11  65 VRB7      29.96R WCI  12
MEADVILLE      CLOUDY    18   9  68 NW9       29.92R WCI   7
FRANKLIN*      MOSUNNY   23  10  57 NW10      29.90R WCI  12
NEW CASTLE     PTSUNNY   24  13  62 NW8       29.96R
BEAVER COUNTY  PTSUNNY   25  14  63 NW9       29.94R
BUTLER*        FLURRIES  26  12  55 NW8G16    29.93R
PITTSBURGH INT MOSUNNY   25  15  66 NW13      29.93R WCI  14
PITTSBURGH     PTSUNNY   24  16  71 NW10G18   29.91R WCI  14
INDIANA*       CLOUDY    23  18  80 W9        29.91S HAZE    WCI  13
LATROBE        LGT SNOW  25  19  80 NW8       29.91R
WASHINGTON CO* FLURRIES  28  21  74 N6        29.95R
$$

PAZ004>006-010>012-017>019-024>028-033>037-041-042-045-046-049>053-141700-
CENTRAL PENNSYLVANIA

CITY           SKY/WX    TMP DP  RH WIND       PRES   REMARKS
BRADFORD       LGT SNOW  15  10  80 NW12      29.78R VSB 1   WCI   2
DUBOIS         LGT SNOW  18  10  71 NW10      29.83R WCI   6
CLEARFIELD     MIX PCPN  21  12  68 NW16G24   29.83S WCI   7
JOHNSTOWN      CLOUDY    19  13  77 NW16G24   29.78R WCI   4
ALTOONA        MOSUNNY   25  13  60 NW15      29.82R WCI  13
STATE COLLEGE  PTSUNNY   23  10  58 W13G28    29.82R WCI  11
WILLIAMSPORT   PTSUNNY   27  14  58 W12       29.83R
SELINSGROVE    SUNNY     26  16  65 NW12      29.84R
FT INDIANTOWN  MOSUNNY   27  15  59 NW5G24    29.81R
CAPITAL CITY   MOSUNNY   31  15  52 NW23G29   29.83R
HARRISBURG     SUNNY     30  18  60 NW17      29.82R
YORK           SUNNY     31  19  61 NW17G25   29.81R
$$

PAZ038>040-043-044-047-048-054-055-060>062-067>071-141700-
EASTERN PENNSYLVANIA

CITY           SKY/WX    TMP DP  RH WIND       PRES   REMARKS
SCRANTON       CLOUDY    22  14  71 NW12G21   29.75R WCI  10
MOUNT POCONO   MIX PCPN  17  12  80 W17G29    29.65R WCI   1
ALLENTOWN      PTSUNNY   29  16  58 NW14G23   29.77R
QUAKERTOWN*    MOSUNNY   28  19  69 NW10      29.76R
READING        MOSUNNY   29  20  69 NW16G25   29.79R
LANCASTER      MOSUNNY   29  19  66 NW18G24   29.81R
COATESVILLE    PTSUNNY   28  23  80 NW10G20   29.78R
POTTSTOWN      PTSUNNY   29  21  72 NW12G17   29.78R
BLUE BELL      MOSUNNY   30  21  69 NW9G17    29.78R
DOYLESTOWN     SUNNY     28  20  71 NW12G17   29.74R
WILLOW GROVE   NOT AVBL
NORTH PHILA    SUNNY     33  22  63 NW16G26   29.77R
PHILADELPHIA   MOSUNNY   33  23  66 NW20G30   29.78R
$$




USA.gov is the U.S. government's official web portal to all federal, state and local government web resources and services.